x

South Hatteras - 225 South Of Cape Hatteras (41002) Wave Buoy

3:50 - Tue 3rd Mar 2015 All times are EST. -5 hours from GMT.

  • Sig Wave height 6.2ft
  • Swell Direction
  • Peak Period 8s
  • Average Period 6s
  • Wind
    18mph, 20mph gusts
  • Sea Temp 72°f
  • Air Temp 66°f
  • Sea Pressure 1024.4mb
  • South Hatteras - 225 South Of Cape Hatteras
  • South Hatteras - 225 South Of Cape Hatteras

More Historic Weather Station data

Upgrade to MSW Pro to gain access to the past 30 days of data for over 8000 Wavebouys and Weather Stations around the globe.

Join Pro

Comparision Forecast

View Surf forecast
   
mar. 03/03 3:50 6ft 8s 6s 18 20 mph 1024.4mb 72f 66f
2:50 6.5ft 9s 7s 16 20 mph 1025mb 72f 65f
1:50 6.5ft 8s 6s 16 20 mph 1025.2mb 72f 65f
12:50 6.5ft 8s 6s 16 20 mph 1026.2mb 72f 65f
11:50 6.5ft 8s 6s 20 25 mph 1026.7mb 72f 65f
10:50 7ft 7s 6s 18 22 mph 1027.2mb 73f 65f
9:50 7.5ft 7s 6s 18 22 mph 1027.3mb 73f 65f
8:50 8ft 7s 6s 18 25 mph 1026.7mb 73f 65f
7:50 7ft 7s 6s 20 27 mph 1025.8mb 73f 65f
6:50 7ft 6s 6s 20 25 mph 1025.1mb 73f 65f
5:50 6.5ft 6s 6s 22 27 mph 1025.1mb 73f 65f
4:50 6ft 5s 6s 22 27 mph 1024.5mb 73f 65f
3:50 5.5ft 8s 6s 20 25 mph 1023.3mb 73f 66f
2:50 5.5ft 8s 6s 18 25 mph 1023.7mb 73f 66f
1:50 6ft 8s 6s 16 18 mph 1024mb 73f 67f
12:50 5.5ft 8s 6s 13 18 mph 1024.3mb 73f 67f
lun. 03/02 11:50 5.5ft 8s 6s 18 22 mph 1024mb 73f 67f
10:50 5ft 9s 5s 20 22 mph 1024mb 73f 67f
9:50 5ft 9s 6s 18 22 mph 1024.1mb 73f 68f
8:50 5ft 9s 5s 18 25 mph 1023.6mb 73f 69f
7:50 4.5ft 9s 5s 20 22 mph 1023.2mb 73f 69f
6:50 4.5ft 9s 5s 20 25 mph 1022.6mb 73f 72f
5:50 4.5ft 8s 6s 18 22 mph 1022.2mb 73f 72f
4:50 5ft 9s 6s 16 20 mph 1022.1mb 74f 72f
3:50 4.5ft 9s 6s 16 18 mph 1022.2mb 74f 73f
2:50 5ft 9s 6s 13 18 mph 1022.2mb 74f 72f
1:50 5ft 9s 6s 13 18 mph 1022.9mb 74f 72f
12:50 5.5ft 9s 6s 9 11 mph 1023.6mb 73f 71f
11:50 5ft 9s 6s 11 13 mph 1024.5mb 73f 71f
10:50 5ft 9s 6s 18 20 mph 1025mb 73f 69f
9:50 5ft 9s 6s 13 16 mph 1025.4mb 73f 70f
8:50 5.5ft 9s 6s 16 20 mph 1025.4mb 73f 71f
7:50 5.5ft 9s 6s 18 20 mph 1025mb 73f 71f
6:50 6ft 9s 6s 18 20 mph 1025mb 72f 71f
5:50 6ft 9s 6s 16 20 mph 1025.3mb 72f 71f
4:50 6ft 9s 6s 16 20 mph 1025mb 72f 71f
3:50 6ft 9s 6s 16 18 mph 1025mb 72f 71f
2:50 6.5ft 9s 6s 18 20 mph 1026mb 72f 71f
1:50 7ft 7s 6s 16 20 mph 1026.8mb 72f 70f
12:50 6.5ft 8s 6s 18 20 mph 1027.5mb 72f 70f
dim. 03/01 11:50 7ft 9s 6s 18 22 mph 1028mb 72f 70f
10:50 7.5ft 8s 6s 18 20 mph 1028.9mb 72f 70f
9:50 7ft 8s 6s 18 20 mph 1029.3mb 72f 70f
8:50 7.5ft 8s 6s 18 22 mph 1029.4mb 72f 70f
7:50 7ft 7s 6s 20 22 mph 1029.3mb 72f 69f
6:50 7ft 9s 6s 20 25 mph 1029.5mb 72f 69f
5:50 7ft 8s 6s 18 20 mph 1029.7mb 72f 69f
4:50 8ft 10s 6s 20 22 mph 1029.5mb 72f 69f
3:50 7.5ft 8s 7s 20 25 mph 1029.4mb 72f 69f
2:50 8ft 9s 7s 18 22 mph 1030.3mb 72f 68f
1:50 8.5ft 9s 7s 20 22 mph 1030.5mb 72f 68f
12:50 8ft 7s 6s 22 25 mph 1031.3mb 72f 68f
11:50 8ft 9s 7s 20 25 mph 1032.7mb 72f 68f
10:50 9ft 9s 7s 20 25 mph 1033.1mb 72f 68f
9:50 8.5ft 9s 7s 18 25 mph 1033.4mb 72f 68f
8:50 9ft 10s 7s 22 27 mph 1033.3mb 71f 67f
7:50 9ft 8s 7s 22 25 mph 1033.1mb 71f 67f
6:50 10ft 9s 7s 25 29 mph 1032.6mb 71f 67f
5:50 9ft 8s 7s 25 29 mph 1032.2mb 71f 67f
4:50 10ft 9s 7s 25 29 mph 1031.8mb 71f 67f
3:50 9ft 10s 7s 22 27 mph 1032mb 71f 66f
2:50 10ft 9s 7s 25 29 mph 1032.1mb 70f 66f
1:50 10ft 10s 7s 25 29 mph 1032.5mb 70f 66f
12:50 11ft 9s 7s 25 29 mph 1033.3mb 70f 66f
sam. 02/28 11:50 11ft 9s 7s 27 31 mph 1033.5mb 70f 65f
10:50 11ft 9s 7s 27 31 mph 1033.8mb 70f 65f
9:50 12ft 9s 7s 27 31 mph 1034.2mb 70f 65f
8:50 12ft 8s 7s 27 34 mph 1033.9mb 70f 65f
7:50 11ft 8s 7s 29 38 mph 1033.2mb 70f 65f
6:50 10ft 8s 7s 29 34 mph 1032.9mb 69f 65f
5:50 10ft 9s 7s 27 31 mph 1032.7mb 69f 65f
4:50 10.5ft 8s 7s 27 31 mph 1032.3mb 69f 65f
3:50 10ft 8s 7s 25 31 mph 1031.7mb 69f 65f
2:50 9ft 9s 7s 22 27 mph 1031.7mb 69f 65f
1:50 10ft 8s 7s 22 29 mph 1031.7mb 69f 66f
12:50 9ft 8s 7s 22 29 mph 1032.1mb 69f 66f
11:50 9ft 8s 6s 22 27 mph 1032.7mb 69f 66f
10:50 10ft 8s 7s 22 27 mph 1032.9mb 69f 66f
9:50 9ft 8s 6s 22 31 mph 1032.4mb 69f 66f
8:50 9.5ft 8s 6s 22 29 mph 1031.7mb 69f 66f
7:50 10ft 7s 7s 20 27 mph 1031.1mb 70f 66f
6:50 10ft 8s 7s 22 27 mph 1029.6mb 70f 66f
5:50 9ft 9s 6s 25 29 mph 1028.9mb 70f 66f
4:50 10ft 10s 7s 22 27 mph 1028.4mb 70f 66f
3:50 9ft 10s 7s 22 29 mph 1027.6mb 70f 66f
2:50 9.5ft 9s 7s 22 27 mph 1027mb 70f 66f
1:50 9ft 9s 7s 20 25 mph 1027mb 70f 65f
12:50 10ft 10s 7s 20 25 mph 1027.2mb 70f 65f
ven. 02/27 11:50 10ft 10s 7s 20 22 mph 1027.6mb 70f 65f
10:50 10ft 10s 7s 22 27 mph 1027.2mb 70f 64f
9:50 9ft 10s 7s 20 25 mph 1026.9mb 70f 64f